Volver al catálogo

FENGYUN 1C DEB

LostSSO
NORAD 31812·DEBRIS·🇨🇳 China

Lanzado May 10, 1999 desde Taiyuan Satellite Launch Center

Loading…

Próximos Pases (próximas 24 horas)

TLE

ObsoletoSource: Space-Track

Época: Nov 23, 2024, 22:04 UTC

1 31812U 99025CHA 24328.91976096  .00001846  00000-0  12006-2 0  9996
2 31812  98.7889  17.5005 0064782 209.3240 150.4285 14.02691673632534

Sigue FENGYUN 1C DEB en tiempo real con AllMySat

Download on the App Store